| time (UTC) | temp F | wind direction | speed MPH | gust MPH | rain 1hr in | rain 24hr in | rain mn in | humidity % | barometer mb |
| 20260904074609 | 70 | 167 | 0.0 | 0.0 | 0.00 | 0.01 | 0.00 | 68 | 1017.2 |
| 20260904073059 | 70 | 167 | 0.0 | 0.0 | 0.00 | 0.01 | 0.00 | 68 | 1017.1 |
| 20260904071559 | 70 | 167 | 0.0 | 0.0 | 0.00 | 0.01 | 0.00 | 68 | 1017.2 |
| 20260904070056 | 70 | 167 | 0.0 | 0.0 | 0.00 | 0.01 | 0.00 | 67 | 1017.4 |
| 20260904064603 | 70 | 167 | 0.0 | 0.0 | 0.00 | 0.01 | 0.00 | 67 | 1017.6 |
| 20260904063052 | 70 | 167 | 0.0 | 1.0 | 0.00 | 0.01 | 0.00 | 67 | 1017.6 |
| 20260904061550 | 70 | 167 | 0.0 | 0.0 | 0.00 | 0.01 | 0.00 | 67 | 1018.0 |
| 20260904060112 | 71 | 167 | 0.0 | 0.0 | 0.00 | 0.01 | 0.00 | 66 | 1018.2 |
| 20260904054546 | 71 | 167 | 0.0 | 0.0 | 0.00 | 0.01 | 0.00 | 66 | 1018.4 |
| 20260904053134 | 71 | 167 | 0.0 | 0.0 | 0.00 | 0.01 | 0.00 | 66 | 1018.6 |
| 20260904051603 | 71 | 167 | 0.0 | 0.0 | 0.00 | 0.01 | 0.00 | 66 | 1018.8 |
| 20260904050040 | 72 | 167 | 0.0 | 0.0 | 0.00 | 0.01 | 0.00 | 64 | 1018.9 |
| 20260904044556 | 72 | 167 | 0.0 | 0.0 | 0.00 | 0.01 | 0.00 | 64 | 1018.9 |
| 20260904043039 | 72 | 167 | 0.0 | 0.0 | 0.00 | 0.01 | 0.00 | 64 | 1019.0 |
| 20260904041539 | 72 | 167 | 0.0 | 0.0 | 0.00 | 0.01 | 0.00 | 64 | 1019.1 |
| 20260904040046 | 72 | 167 | 0.0 | 0.0 | 0.00 | 0.01 | 0.00 | 65 | 1019.1 |
| 20260904034536 | 72 | 167 | 0.0 | 0.0 | 0.00 | 0.01 | 0.01 | 65 | 1019.0 |
| 20260904033042 | 72 | 167 | 0.0 | 1.0 | 0.00 | 0.01 | 0.01 | 64 | 1019.1 |
| 20260904031535 | 72 | 167 | 0.0 | 3.0 | 0.00 | 0.01 | 0.01 | 64 | 1019.2 |
| 20260904030034 | 72 | 167 | 0.0 | 1.0 | 0.00 | 0.01 | 0.01 | 64 | 1019.4 |
| 20260904024535 | 72 | 167 | 0.0 | 0.0 | 0.00 | 0.01 | 0.01 | 62 | 1019.3 |
| 20260904023133 | 73 | 167 | 0.0 | 0.0 | 0.00 | 0.01 | 0.01 | 62 | 1019.4 |
| 20260904021534 | 73 | 167 | 0.0 | 0.0 | 0.00 | 0.01 | 0.01 | 61 | 1019.5 |
| 20260904020037 | 73 | 167 | 0.0 | 0.0 | 0.00 | 0.01 | 0.01 | 63 | 1019.3 |
| 20260904014532 | 73 | 167 | 0.0 | 1.0 | 0.00 | 0.01 | 0.01 | 63 | 1019.1 |
| 20260904013034 | 73 | 167 | 0.0 | 2.0 | 0.00 | 0.01 | 0.01 | 63 | 1018.9 |
| 20260904011534 | 73 | 167 | 0.0 | 2.0 | 0.00 | 0.01 | 0.01 | 63 | 1018.7 |
| 20260904010030 | 73 | 167 | 0.0 | 1.0 | 0.00 | 0.01 | 0.01 | 63 | 1018.4 |
| 20260904004530 | 74 | 167 | 0.0 | 1.0 | 0.00 | 0.01 | 0.01 | 62 | 1018.3 |
| 20260904003029 | 74 | 167 | 0.0 | 0.0 | 0.00 | 0.01 | 0.01 | 62 | 1018.1 |
| 20260904001531 | 74 | 167 | 0.0 | 0.0 | 0.00 | 0.01 | 0.01 | 61 | 1017.8 |
| 20260904000028 | 74 | 167 | 0.0 | 2.0 | 0.00 | 0.01 | 0.01 | 61 | 1017.6 |
| 20260903234529 | 75 | 167 | 0.0 | 1.0 | 0.00 | 0.01 | 0.01 | 60 | 1017.3 |
| 20260903233027 | 76 | 167 | 0.0 | 0.0 | 0.00 | 0.01 | 0.01 | 59 | 1017.4 |
| 20260903231532 | 76 | 167 | 0.0 | 0.0 | 0.00 | 0.01 | 0.01 | 58 | 1017.2 |
| 20260903230026 | 76 | 167 | 0.0 | 0.0 | 0.00 | 0.01 | 0.01 | 58 | 1017.4 |
| 20260903224537 | 77 | 167 | 0.0 | 0.0 | 0.00 | 0.01 | 0.01 | 57 | 1017.2 |
| 20260903223030 | 77 | 167 | 0.0 | 0.0 | 0.00 | 0.01 | 0.01 | 56 | 1017.4 |
| 20260903221521 | 77 | 167 | 0.0 | 0.0 | 0.00 | 0.01 | 0.01 | 56 | 1017.6 |
| 20260903220021 | 78 | 167 | 1.0 | 3.0 | 0.00 | 0.01 | 0.01 | 53 | 1017.6 |
| 20260903214520 | 78 | 167 | 0.0 | 2.0 | 0.00 | 0.01 | 0.01 | 50 | 1017.7 |
| 20260903213037 | 79 | 167 | 1.0 | 2.0 | 0.00 | 0.01 | 0.01 | 51 | 1017.7 |
| 20260903211518 | 79 | 167 | 1.0 | 3.0 | 0.00 | 0.01 | 0.01 | 50 | 1017.6 |
| 20260903210017 | 79 | 167 | 0.0 | 1.0 | 0.00 | 0.01 | 0.01 | 52 | 1017.7 |
| 20260903204516 | 79 | 167 | 0.0 | 2.0 | 0.00 | 0.01 | 0.01 | 50 | 1017.7 |
| 20260903203025 | 79 | 167 | 0.0 | 2.0 | 0.00 | 0.01 | 0.01 | 49 | 1017.8 |
| 20260903201514 | 79 | 167 | 0.0 | 1.0 | 0.00 | 0.01 | 0.01 | 50 | 1018.1 |
| 20260903200014 | 79 | 167 | 0.0 | 2.0 | 0.00 | 0.01 | 0.01 | 52 | 1018.2 |
| 20260903194517 | 79 | 167 | 0.0 | 2.0 | 0.00 | 0.01 | 0.01 | 51 | 1018.2 |
| 20260903193008 | 79 | 167 | 0.0 | 3.0 | 0.00 | 0.01 | 0.01 | 47 | 1018.2 |
| 20260903191507 | 79 | 167 | 0.0 | 2.0 | 0.00 | 0.01 | 0.01 | 48 | 1018.3 |
| 20260903190005 | 79 | 167 | 0.0 | 2.0 | 0.00 | 0.01 | 0.01 | 52 | 1018.6 |
| 20260903184502 | 79 | 167 | 0.0 | 2.0 | 0.00 | 0.01 | 0.01 | 50 | 1018.6 |
| 20260903183110 | 79 | 167 | 0.0 | 2.0 | 0.00 | 0.01 | 0.01 | 55 | 1018.7 |
| 20260903181600 | 79 | 167 | 0.0 | 1.0 | 0.00 | 0.01 | 0.01 | 55 | 1018.9 |
| 20260903180100 | 79 | 167 | 0.0 | 1.0 | 0.00 | 0.01 | 0.01 | 58 | 1018.9 |
| 20260903174556 | 78 | 167 | 0.0 | 1.0 | 0.00 | 0.01 | 0.01 | 58 | 1019.0 |
| 20260903173053 | 77 | 167 | 0.0 | 0.0 | 0.00 | 0.01 | 0.01 | 59 | 1019.2 |
| 20260903171558 | 76 | 167 | 0.0 | 1.0 | 0.00 | 0.01 | 0.01 | 61 | 1019.4 |
| 20260903170058 | 75 | 167 | 0.0 | 0.0 | 0.00 | 0.01 | 0.01 | 63 | 1019.7 |
| 20260903164547 | 75 | 167 | 0.0 | 1.0 | 0.00 | 0.01 | 0.01 | 63 | 1019.7 |
| 20260903163044 | 75 | 167 | 0.0 | 2.0 | 0.00 | 0.01 | 0.01 | 63 | 1019.8 |
| 20260903161540 | 75 | 167 | 0.0 | 1.0 | 0.00 | 0.01 | 0.01 | 64 | 1019.8 |
| 20260903160045 | 74 | 167 | 0.0 | 2.0 | 0.00 | 0.01 | 0.01 | 61 | 1019.9 |
| 20260903154538 | 74 | 167 | 0.0 | 3.0 | 0.00 | 0.01 | 0.01 | 62 | 1020.0 |
| 20260903153037 | 74 | 167 | 0.0 | 1.0 | 0.00 | 0.01 | 0.01 | 64 | 1020.0 |
| 20260903151533 | 74 | 167 | 0.0 | 2.0 | 0.00 | 0.01 | 0.01 | 63 | 1019.9 |
| 20260903150043 | 74 | 167 | 0.0 | 1.0 | 0.00 | 0.01 | 0.01 | 63 | 1019.9 |
| 20260903144534 | 73 | 167 | 0.0 | 1.0 | 0.00 | 0.01 | 0.01 | 64 | 1019.8 |
| 20260903143024 | 72 | 167 | 0.0 | 1.0 | 0.00 | 0.01 | 0.01 | 65 | 1019.8 |
| 20260903141523 | 72 | 167 | 0.0 | 1.0 | 0.00 | 0.01 | 0.01 | 65 | 1019.8 |
| 20260903140022 | 71 | 167 | 0.0 | 0.0 | 0.00 | 0.01 | 0.01 | 66 | 1019.9 |
| 20260903134521 | 71 | 167 | 0.0 | 0.0 | 0.00 | 0.01 | 0.01 | 66 | 1019.8 |
| 20260903133021 | 71 | 165 | 0.0 | 0.0 | 0.00 | 0.01 | 0.01 | 67 | 1019.8 |
| 20260903131521 | 70 | 165 | 0.0 | 1.0 | 0.00 | 0.01 | 0.01 | 67 | 1019.6 |
| 20260903130020 | 70 | 165 | 0.0 | 0.0 | 0.00 | 0.01 | 0.01 | 67 | 1019.8 |
| 20260903124519 | 70 | 165 | 0.0 | 0.0 | 0.00 | 0.01 | 0.01 | 67 | 1019.8 |
| 20260903123019 | 70 | 165 | 0.0 | 0.0 | 0.00 | 0.01 | 0.01 | 66 | 1019.8 |
| 20260903121542 | 70 | 165 | 0.0 | 0.0 | 0.00 | 0.01 | 0.01 | 65 | 1019.8 |
| 20260903120018 | 70 | 165 | 0.0 | 0.0 | 0.01 | 0.01 | 0.01 | 65 | 1019.8 |
| 20260903114518 | 70 | 165 | 0.0 | 0.0 | 0.01 | 0.01 | 0.01 | 66 | 1019.7 |
| 20260903113018 | 70 | 165 | 0.0 | 0.0 | 0.01 | 0.01 | 0.01 | 66 | 1019.5 |
| 20260903111516 | 70 | 165 | 0.0 | 0.0 | 0.01 | 0.01 | 0.01 | 65 | 1019.2 |
| 20260903110016 | 70 | 165 | 0.0 | 0.0 | 0.00 | 0.00 | 0.00 | 65 | 1019.2 |
| 20260903104519 | 70 | 165 | 0.0 | 0.0 | 0.00 | 0.00 | 0.00 | 65 | 1019.1 |
| 20260903103015 | 70 | 165 | 0.0 | 0.0 | 0.00 | 0.00 | 0.00 | 65 | 1019.0 |
| 20260903101515 | 70 | 165 | 0.0 | 0.0 | 0.00 | 0.00 | 0.00 | 65 | 1018.9 |
| 20260903100030 | 70 | 165 | 0.0 | 0.0 | 0.00 | 0.00 | 0.00 | 66 | 1019.0 |
| 20260903094514 | 70 | 165 | 0.0 | 0.0 | 0.00 | 0.00 | 0.00 | 67 | 1019.1 |
| 20260903093012 | 70 | 165 | 0.0 | 0.0 | 0.00 | 0.00 | 0.00 | 67 | 1018.9 |
| 20260903091512 | 70 | 165 | 0.0 | 0.0 | 0.00 | 0.00 | 0.00 | 67 | 1018.9 |
| 20260903090010 | 70 | 165 | 0.0 | 0.0 | 0.00 | 0.00 | 0.00 | 67 | 1018.9 |
| 20260903084516 | 70 | 165 | 0.0 | 0.0 | 0.00 | 0.00 | 0.00 | 67 | 1018.8 |
| 20260903083010 | 70 | 165 | 0.0 | 0.0 | 0.00 | 0.00 | 0.00 | 66 | 1018.9 |
| 20260903081509 | 70 | 165 | 0.0 | 0.0 | 0.00 | 0.00 | 0.00 | 67 | 1018.7 |
| 20260903080008 | 70 | 165 | 0.0 | 0.0 | 0.00 | 0.00 | 0.00 | 67 | 1018.8 |